Weather Roundup
Issued by NWS

Home | Current Version | Previous Version | Text Only | Print | Product List | Glossary On
Versions: 1 2 3 4 5 6 7 8 9 10 11 12 13 14 15 16 17 18 19 20 21 22 23 24 25 26 27 28 29 30 31 32 33 34 35 36 37 38 39 40 41 42 43 44 45 46 47 48 49 50
000
NZUS93 KARX 261459
HRRWXR

CURRENT HOURLY OBSERVATIONS ACROSS
MUCH OF THE UPPER MISSISSIPPI VALLEY
NATIONAL WEATHER SERVICE LA CROSSE WI
900 AM CST FRI DEC 26 2014


...SOUTHEAST MINNESOTA...


CITY           SKY/WX    TMP DP  RH WIND       PRES   REMARKS
ROCHESTER      FOG       29  28  96 N9        29.92R VSB 1/4 WCI  20
ROCHESTER/MAYO CLOUDY    31  31  96 NW3       29.93R
WINONA         CLOUDY    30  30 100 CALM      29.94R FOG
AUSTIN         FOG       30  28  93 N8        29.91R VSB 3/4 WCI  23
ALBERT LEA     CLOUDY    32  32 100 N9        29.92R FOG     WCI  24
DODGE CENTER   CLOUDY    32  30  93 N9        29.92R FOG     WCI  24
PRESTON        SUNNY     27  27  99 CALM      29.91R FOG
OWATONNA       CLOUDY    32  30  93 N10       29.94R FOG     WCI  24
FARIBAULT      CLOUDY    34  30  86 N9        29.96R FOG     WCI  26
$$

...ELSEWHERE IN MINNESOTA...


CITY           SKY/WX    TMP DP  RH WIND       PRES   REMARKS
MINNEAPOLIS    LGT SNOW  32  28  85 N10       29.98R FOG     WCI  24
INTNL FALLS    CLOUDY    22  18  85 NW7       30.05R WCI  13
DULUTH         CLOUDY    27  22  81 N7        30.00R WCI  19
RED WING       CLOUDY    34  30  86 N3        29.95R
REDWOOD FALLS  CLOUDY    29  26  89 N12G18    30.03R WCI  19
MANKATO        CLOUDY    32  27  80 N14       29.97R WCI  22
WORTHINGTON    CLOUDY    27 -20  12 N17G25    29.98R WCI  14
FAIRMONT       CLOUDY    30  27  86 N18       29.95R WCI  18
$$

...SOUTHWEST WISCONSIN...


CITY           SKY/WX    TMP DP  RH WIND       PRES   REMARKS
LA CROSSE      SUNNY     31  29  92 CALM      29.93R
PRAIRIE DU CHI SUNNY     32  29  90 CALM      29.93R
BOSCOBEL       SUNNY     30  28  92 CALM      29.94R
LONE ROCK      NOT AVBL
PLATTEVILLE    MOSUNNY   37  33  88 CALM      29.94S
FORT MC COY    SUNNY     25  25  99 CALM      29.93R
CAMP DOUGLAS   SUNNY     27  27 100 SE1       29.92S
VIROQUA        FAIR      34  34 100 SE7       29.90R WCI  28
WIS DELLS      NOT AVBL
$$

...ELSEWHERE IN WISCONSIN...


CITY           SKY/WX    TMP DP  RH WIND       PRES   REMARKS
MILWAUKEE      MOSUNNY   40  33  76 SW14      29.99R WCI  32
MADISON        PTSUNNY   38  34  85 S5        29.95R WCI  34
GREEN BAY      SUNNY     33  32  96 CALM      29.97R FOG
EAU CLAIRE     NOT AVBL
BLACK RVR FLS  FAIR      23  23 100 CALM      29.93R
MEDFORD        CLOUDY    29  28  96 NE3       29.92R FOG
WAUSAU         FOG       29  28  96 E3        29.92R VSB 1/2
WIS RAPIDS     SUNNY     31  28  89 CALM      29.94S
MARSHFIELD     MOSUNNY   29  28  96 CALM      29.91R FOG
RICE LAKE      FLURRIES  32  29  90 N7        29.98R WCI  25
$$

...NORTHEAST IOWA...


CITY           SKY/WX    TMP DP  RH WIND       PRES   REMARKS
DECORAH        SUNNY     34  32  93 S3        29.89R
MASON CITY     FOG       30  29  96 N9        29.93R VSB 1/4 WCI  22
CHARLES CITY   SUNNY     32  32 100 CALM      29.91R
OELWEIN        SUNNY     32  30  93 S6        29.91R WCI  26
$$

...ELSEWHERE IN IOWA...


CITY           SKY/WX    TMP DP  RH WIND       PRES   REMARKS
DES MOINES     PTSUNNY   33  29  85 NW12      29.93R WCI  24
IOWA CITY      PTSUNNY   40  34  79 S6        29.95R
FORT DODGE     CLOUDY    32  28  86 N10       29.95R WCI  24
$$

...NORTHERN ILLINOIS...


CITY           SKY/WX    TMP DP  RH WIND       PRES   REMARKS
CHICAGO-OHARE  PTSUNNY   40  34  79 SW13G18   30.02R WCI  32
CHICAGO-MIDWAY PTSUNNY   41  35  79 SW12G21   30.04R
MOLINE         PTSUNNY   42  34  73 SW9       29.97R
ROCKFORD       PTSUNNY   38  35  89 S6        30.01R WCI  33
PEORIA         MOSUNNY   41  35  79 S13       30.02S
$$

NOTE: "FAIR" INDICATES FEW OR NO CLOUDS BELOW 12,000 FEET WITH NO
SIGNIFICANT WEATHER AND/OR OBSTRUCTIONS TO VISIBILITY. WIND
SPEEDS ARE IN MILES-PER-HOUR.



USA.gov is the U.S. government's official web portal to all federal, state and local government web resources and services.